Wind_Speed
21 19 19 18 17 17 17 17 18 18 18 19 19 17 16 15 14 14 13 13 13 13 13 13 13 13 13 13 13 13 14 14 15 16 16 17 17 17 17 17 17 17
24 21 21 19 18 19 17 16 17 18 18 18 18 18 17 17 16 15 15 14 14 13 14 14 14 14 14 14 14 14 14 14 14 14 15 15 16 16 17 17 17 16
24 23 22 21 21 21 18 16 16 17 18 18 18 17 17 17 17 17 16 16 15 15 14 14 15 15 15 15 15 15 15 15 15 14 14 15 15 15 16 16 17 17
21 21 22 23 23 22 18 17 17 17 17 18 18 17 16 16 17 17 16 16 16 16 15 15 15 15 16 16 16 16 16 16 16 16 15 15 15 15 15 15 15 16
22 20 20 22 23 22 19 18 20 18 17 16 17 18 17 16 15 16 16 15 15 15 15 16 16 16 16 17 17 17 17 17 17 17 17 16 16 15 15 15 15 16
20 20 19 20 23 24 20 19 21 19 16 16 16 18 18 17 17 16 16 16 15 15 15 15 16 17 16 16 17 17 18 18 17 18 18 18 18 17 17 16 16 16
20 21 20 19 22 23 21 21 21 18 17 17 18 19 19 19 19 18 17 17 17 17 17 17 17 17 17 17 17 17 17 17 17 17 18 18 18 19 19 19 19 18
23 23 22 21 21 22 22 21 20 18 17 19 21 21 21 21 20 20 20 20 20 20 20 20 19 18 18 18 19 19 19 18 17 17 18 19 19 19 20 20 20 20
23 24 24 23 23 23 24 24 24 24 24 23 23 24 24 23 21 21 21 21 23 24 23 22 21 20 19 20 20 20 21 20 20 20 20 20 19 20 20 21 20 20
25 25 25 25 25 25 26 27 28 29 28 26 25 26 26 24 23 23 23 23 25 28 28 25 23 22 22 21 21 21 22 23 23 24 24 23 22 22 22 21 20 20
27 26 25 25 26 27 27 28 29 29 28 27 27 28 26 25 25 24 24 24 25 27 29 28 25 24 25 25 25 25 25 26 26 26 24 23 24 24 24 23 22 22
28 28 27 28 28 29 31 32 32 31 30 28 27 28 27 26 26 25 25 25 25 25 26 26 25 26 26 26 26 26 27 28 29 28 25 23 24 25 25 25 25 24
32 32 32 31 30 31 32 32 31 31 31 29 29 30 29 28 27 27 27 27 27 27 26 25 26 27 28 27 24 23 26 28 28 27 26 25 25 26 26 26 27 26
36 35 35 34 33 34 33 33 33 33 33 33 34 34 32 31 30 30 30 30 30 30 30 30 30 30 31 30 28 27 28 29 29 29 28 28 28 27 25 24 24 26
39 39 39 38 38 38 37 37 38 38 38 39 39 38 36 34 34 33 33 34 34 35 34 34 35 35 34 34 35 35 34 33 33 33 32 31 30 29 26 24 25 27
41 42 42 42 42 41 41 41 41 41 41 42 42 41 41 40 39 38 38 38 38 39 39 39 39 39 39 39 39 39 38 36 35 35 35 35 34 34 34 34 36 36
42 43 43 43 44 44 44 44 44 44 44 44 44 44 45 45 44 44 44 43 43 44 44 44 44 44 43 43 42 41 40 39 38 38 38 38 39 39 40 41 41 41
42 42 42 41 42 42 43 44 46 47 47 47 47 48 48 48 49 49 48 48 48 48 48 48 47 46 46 45 45 44 43 42 42 42 41 41 41 42 42 43 43 43
43 43 42 42 42 42 43 43 44 45 46 47 47 48 48 49 49 50 50 50 50 49 49 49 48 47 46 46 46 46 46 46 45 44 44 43 43 43 44 44 44 44
45 45 45 45 45 45 45 44 43 43 43 43 44 45 45 46 47 47 48 49 49 48 48 48 47 46 46 46 46 47 48 47 46 45 45 45 45 45 45 45 45 45
47 47 46 46 46 46 46 46 45 45 45 45 46 47 47 47 48 47 47 47 47 47 47 47 47 47 47 47 47 47 47 46 45 45 45 45 45 45 45 45 44 44
49 49 49 48 47 47 47 47 47 48 49 50 51 51 51 51 51 51 49 48 47 47 46 46 47 47 47 47 48 47 47 46 46 45 45 45 45 45 45 45 45 45
52 52 51 51 50 49 49 49 49 50 51 52 53 53 53 53 53 53 52 50 50 49 48 47 47 47 47 47 48 48 48 48 48 48 47 47 47 47 48 48 48 48
54 54 54 54 54 53 52 51 51 52 52 53 54 54 55 55 54 54 52 51 51 50 50 50 49 48 48 48 48 48 48 48 49 49 49 49 50 50 50 50 50 50
55 55 55 55 55 54 53 53 52 53 53 54 55 55 55 54 54 53 52 51 51 51 51 51 51 50 50 49 49 49 49 49 49 49 50 50 50 51 51 51 51 51
57 57 56 56 55 55 54 54 54 54 54 54 54 54 53 53 52 51 51 51 51 51 51 51 52 52 52 52 51 51 51 51 51 50 50 50 51 51 50 50 50 50
Wind_Direction
292 294 293 285 282 284 279 274 273 273 275 275 276 275 274 275 278 279 281 281 282 282 281 281 279 277 276 276 274 271 267 264 263 262 260 259 257 254 253 252 253 253
290 292 290 285 283 282 272 265 268 271 273 275 276 276 274 274 275 276 278 278 278 279 279 279 280 278 277 277 276 276 275 272 269 266 264 263 261 259 256 254 252 251
285 289 285 286 288 283 268 256 261 268 272 276 278 280 281 280 279 278 277 277 276 274 274 275 276 277 277 276 276 276 276 276 274 272 269 268 266 264 262 258 255 252
281 286 283 284 286 280 266 252 253 261 269 276 281 283 284 284 285 284 282 279 277 275 273 273 273 275 275 275 274 273 273 274 274 275 275 274 273 271 269 266 263 259
279 282 284 286 281 275 265 252 251 256 262 271 279 282 282 280 278 280 282 281 278 275 274 272 271 271 272 273 272 271 269 269 270 272 274 275 276 276 274 272 270 267
280 280 285 288 281 274 264 253 251 254 258 264 271 275 277 278 275 273 276 280 280 276 271 268 267 267 267 269 271 271 270 268 268 267 267 268 270 272 272 271 269 268
280 283 283 284 281 272 261 254 251 249 253 257 261 266 268 273 276 277 278 280 279 277 273 268 264 263 265 266 269 271 272 272 272 271 269 268 267 266 266 266 266 264
280 283 281 279 277 269 261 256 248 245 253 256 257 261 264 267 272 277 281 281 279 279 278 276 271 267 265 267 270 271 272 273 274 275 275 274 272 269 267 266 265 264
280 280 280 278 276 272 267 264 260 257 261 261 257 256 259 262 266 271 274 277 280 281 281 280 279 275 271 269 269 270 271 272 273 273 273 273 273 272 271 268 266 265
281 279 278 277 277 276 270 267 268 265 264 267 266 262 259 260 264 266 267 269 275 279 281 281 280 279 278 275 272 272 273 275 276 276 272 269 267 267 267 266 265 264
285 283 280 274 275 275 269 268 273 271 270 273 275 270 265 264 264 264 264 266 270 275 278 279 277 277 279 278 277 279 280 280 280 277 273 271 270 268 265 263 263 262
283 283 280 274 272 272 270 272 274 274 273 272 269 269 270 269 266 264 264 265 266 268 272 275 275 275 274 274 278 283 285 285 282 276 272 272 273 271 268 265 264 262
281 280 278 275 273 274 276 276 274 273 273 269 266 269 274 275 272 268 267 268 267 267 269 272 274 272 268 266 270 280 284 285 284 281 278 277 276 272 269 267 266 266
282 281 279 275 272 274 275 275 274 275 274 271 270 274 277 278 275 272 272 272 272 272 272 273 274 273 268 264 267 276 282 282 282 283 283 283 280 274 269 267 269 270
281 280 279 276 275 274 273 273 274 274 274 274 276 279 281 280 278 276 275 274 274 274 274 275 277 278 276 273 273 277 280 280 279 279 280 281 279 273 268 268 273 276
279 279 278 277 277 277 276 276 275 275 276 276 278 280 281 281 280 279 278 278 276 276 276 277 278 279 279 278 278 279 279 279 277 276 276 276 275 272 270 270 273 276
278 278 277 276 276 277 278 278 277 277 277 277 278 279 280 280 280 279 279 278 278 277 277 277 277 277 278 278 279 279 278 277 275 274 273 273 273 272 271 271 272 274
276 276 275 275 276 277 278 278 278 277 277 277 278 279 279 280 280 280 279 279 278 277 277 277 277 277 276 276 277 276 275 275 274 274 273 272 271 271 270 270 271 272
273 272 272 274 276 277 278 278 278 277 276 276 277 278 279 279 280 280 280 279 279 278 278 277 276 275 274 273 272 272 273 273 273 273 273 272 272 271 271 270 269 269
271 270 271 273 275 276 277 277 277 275 274 274 275 276 277 278 279 279 280 280 280 280 279 279 278 276 274 272 271 270 271 271 272 272 272 272 272 272 272 271 270 269
270 269 270 271 273 275 276 276 275 275 274 273 274 275 275 275 276 277 278 278 278 278 278 279 278 278 277 276 275 274 273 272 273 272 272 271 270 269 270 271 271 271
268 268 269 271 272 274 274 274 274 274 274 274 275 276 276 276 277 277 277 275 274 274 273 274 274 275 276 277 277 277 277 276 275 274 274 273 271 270 270 271 271 272
267 268 269 271 272 272 273 273 273 273 273 274 274 275 276 277 277 278 277 275 275 274 273 272 272 272 273 274 275 275 276 276 276 275 275 275 274 273 273 273 273 273
266 268 269 270 271 272 272 271 271 271 272 272 273 273 274 275 276 275 275 275 275 274 274 274 273 272 272 272 272 272 273 273 273 274 274 273 274 274 274 274 274 274
266 268 269 271 271 271 271 270 269 269 270 270 270 271 272 273 273 273 273 273 272 272 273 273 273 273 273 272 272 272 272 272 272 272 273 273 273 273 274 274 274 274
267 268 270 271 271 271 270 270 270 269 269 269 269 269 270 270 270 270 271 271 271 271 271 271 271 272 272 272 273 273 273 273 273 273 273 273 273 274 274 274 274 274
Height
5742 5743 5745 5746 5746 5746 5746 5745 5745 5745 5745 5745 5745 5745 5745 5744 5744 5744 5744 5744 5744 5744 5744 5744 5745 5745 5745 5745 5745 5745 5745 5745 5745 5746 5746 5746 5746 5747 5747 5747 5747 5747
5740 5741 5742 5744 5744 5744 5744 5743 5742 5742 5742 5742 5742 5742 5742 5743 5743 5743 5743 5743 5743 5742 5742 5742 5742 5743 5743 5743 5743 5743 5743 5744 5744 5744 5744 5744 5745 5745 5745 5745 5745 5745
5738 5739 5740 5741 5742 5742 5741 5741 5740 5740 5740 5740 5740 5740 5740 5740 5740 5741 5741 5741 5741 5741 5741 5741 5741 5741 5741 5742 5742 5742 5742 5742 5742 5742 5742 5742 5743 5743 5743 5744 5744 5744
5735 5737 5737 5738 5739 5739 5739 5739 5738 5738 5738 5738 5738 5738 5738 5738 5738 5738 5739 5740 5740 5740 5740 5740 5740 5740 5740 5740 5741 5741 5740 5740 5740 5740 5740 5741 5741 5741 5742 5742 5742 5742
5732 5734 5734 5735 5736 5736 5736 5736 5736 5736 5736 5736 5736 5735 5735 5735 5735 5735 5736 5737 5738 5738 5739 5739 5739 5739 5740 5739 5739 5739 5739 5739 5739 5739 5739 5739 5739 5739 5739 5740 5740 5740
5729 5731 5732 5732 5733 5733 5733 5734 5734 5735 5735 5735 5734 5733 5733 5733 5733 5733 5733 5733 5734 5735 5736 5736 5737 5737 5737 5738 5738 5738 5738 5738 5738 5738 5738 5738 5737 5737 5737 5737 5737 5738
5727 5728 5729 5730 5731 5731 5731 5731 5732 5733 5733 5733 5732 5732 5731 5731 5730 5731 5731 5731 5731 5731 5732 5733 5734 5734 5734 5735 5735 5736 5736 5737 5737 5737 5737 5737 5736 5736 5735 5735 5735 5735
5725 5725 5726 5728 5728 5729 5729 5729 5730 5730 5730 5730 5730 5730 5730 5729 5729 5729 5729 5729 5728 5729 5729 5730 5731 5732 5733 5733 5733 5733 5734 5734 5734 5735 5735 5735 5735 5734 5734 5734 5733 5733
5722 5722 5723 5724 5725 5726 5726 5727 5727 5727 5727 5727 5727 5728 5728 5727 5727 5727 5727 5727 5726 5726 5727 5728 5729 5729 5730 5730 5730 5730 5731 5731 5732 5732 5732 5732 5732 5732 5732 5732 5731 5731
5718 5719 5720 5720 5721 5722 5722 5723 5724 5724 5724 5724 5724 5725 5725 5725 5725 5725 5725 5725 5724 5723 5724 5725 5726 5726 5727 5727 5727 5727 5728 5728 5729 5729 5729 5729 5729 5729 5729 5729 5729 5729
5714 5716 5717 5717 5718 5718 5718 5719 5720 5721 5721 5722 5721 5721 5721 5721 5721 5721 5721 5722 5722 5721 5721 5722 5723 5724 5724 5723 5724 5724 5725 5725 5725 5725 5726 5726 5725 5725 5726 5726 5726 5726
5711 5713 5714 5714 5715 5715 5714 5715 5717 5718 5718 5718 5718 5717 5716 5717 5717 5718 5718 5718 5719 5719 5720 5720 5720 5721 5721 5721 5721 5721 5721 5721 5721 5721 5722 5722 5722 5722 5722 5722 5722 5723
5707 5709 5710 5710 5711 5711 5711 5712 5713 5714 5714 5714 5714 5712 5712 5713 5713 5714 5714 5715 5715 5716 5717 5717 5717 5717 5717 5718 5718 5718 5718 5718 5718 5718 5718 5719 5719 5719 5719 5719 5719 5719
5702 5704 5705 5706 5707 5707 5708 5708 5709 5710 5709 5709 5709 5708 5708 5709 5710 5710 5711 5711 5712 5712 5713 5714 5714 5714 5714 5714 5714 5715 5715 5715 5715 5715 5715 5715 5715 5715 5715 5715 5715 5715
5697 5698 5699 5700 5701 5703 5704 5704 5705 5705 5704 5704 5703 5703 5704 5706 5706 5707 5707 5707 5707 5708 5709 5710 5710 5710 5710 5710 5710 5711 5712 5712 5712 5712 5712 5712 5712 5712 5712 5712 5712 5712
5692 5693 5693 5694 5695 5696 5697 5698 5699 5699 5699 5699 5699 5699 5700 5701 5701 5702 5702 5703 5703 5703 5704 5705 5705 5705 5705 5706 5706 5706 5707 5707 5707 5708 5708 5708 5708 5708 5708 5708 5708 5708
5687 5688 5688 5688 5689 5689 5690 5691 5692 5693 5693 5693 5694 5694 5694 5695 5696 5697 5697 5698 5698 5698 5699 5699 5699 5700 5700 5700 5701 5701 5701 5701 5702 5703 5703 5703 5703 5703 5703 5703 5703 5703
5683 5683 5683 5684 5684 5684 5685 5685 5685 5686 5686 5687 5687 5688 5688 5689 5689 5689 5690 5691 5691 5692 5692 5693 5693 5694 5694 5695 5694 5695 5695 5695 5696 5696 5697 5698 5697 5697 5697 5697 5697 5697
5678 5679 5679 5679 5679 5680 5680 5680 5680 5680 5681 5681 5681 5681 5681 5682 5682 5682 5682 5682 5683 5684 5684 5685 5686 5687 5687 5688 5688 5688 5688 5688 5689 5690 5690 5690 5690 5690 5690 5690 5691 5691
5673 5674 5674 5674 5674 5674 5674 5675 5675 5675 5675 5675 5676 5676 5676 5676 5676 5676 5676 5675 5676 5676 5676 5677 5678 5678 5679 5679 5680 5681 5681 5681 5682 5682 5682 5683 5683 5683 5683 5683 5684 5684
5667 5668 5668 5668 5668 5669 5669 5669 5669 5669 5669 5669 5670 5670 5670 5670 5670 5670 5670 5670 5670 5670 5670 5670 5670 5670 5670 5671 5672 5673 5673 5674 5675 5675 5675 5676 5676 5676 5676 5676 5676 5677
5661 5661 5662 5662 5663 5663 5663 5663 5663 5662 5663 5663 5663 5663 5663 5663 5663 5664 5664 5664 5664 5665 5665 5664 5664 5663 5663 5663 5664 5665 5665 5666 5667 5667 5668 5668 5668 5669 5669 5669 5669 5669
5654 5655 5655 5656 5656 5656 5657 5657 5657 5656 5656 5656 5656 5657 5657 5657 5657 5657 5657 5656 5656 5657 5657 5658 5658 5658 5657 5657 5657 5658 5658 5658 5659 5659 5660 5660 5660 5661 5661 5661 5662 5662
5647 5648 5648 5648 5649 5649 5650 5650 5650 5650 5650 5650 5650 5650 5650 5651 5651 5651 5650 5650 5649 5649 5649 5650 5650 5650 5651 5651 5651 5651 5652 5652 5652 5652 5652 5653 5653 5653 5653 5653 5654 5654
5640 5641 5641 5641 5641 5642 5642 5643 5643 5643 5643 5643 5644 5644 5644 5644 5644 5644 5644 5643 5643 5643 5643 5642 5643 5643 5643 5644 5644 5644 5644 5645 5645 5645 5645 5645 5646 5646 5646 5646 5646 5646
5633 5633 5634 5634 5634 5634 5634 5635 5635 5635 5636 5636 5636 5637 5637 5637 5637 5638 5637 5637 5637 5637 5636 5636 5636 5636 5636 5636 5636 5637 5637 5637 5637 5638 5638 5638 5638 5639 5639 5639 5639 5639